Regional Weather Roundup
Issued by NWS

Home | Current Version | Previous Version | Text Only | Print | Product List | Glossary Off
Versions: 1 2 3 4 5 6 7 8 9 10 11 12 13 14 15 16 17 18 19 20 21 22 23 24 25 26 27 28 29 30 31 32 33 34 35 36 37 38 39 40 41 42 43 44 45 46 47 48 49 50

000
ASUS43 KDTX 251901
RWRMI
MICHIGAN HOURLY REGIONAL WEATHER ROUNDUP
NATIONAL WEATHER SERVICE DETROIT/PONTIAC MI
300 PM EDT SAT APR 25 2015

NOTE: "FAIR" INDICATES FEW OR NO CLOUDS BELOW 12,000 FEET WITH NO
SIGNIFICANT WEATHER AND/OR OBSTRUCTION TO VISIBILITY.

MIZ047>049-052>055-059>063-066>070-074>076-081>083-252000-
SOUTHEAST LOWER MICHIGAN

CITY           SKY/WX    TMP DP  RH WIND       PRES   REMARKS
ADRIAN         CLOUDY    47  28  47 SE15      29.82F
ALMA           SUNNY     51  28  39 NE17G24   29.84F
ANN ARBOR      CLOUDY    49  30  48 E9G20     29.81F
BAD AXE        SUNNY     45  23  42 NE14G20   29.90S
CARO           FAIR      51  24  34 CALM      29.85F
DETROIT CITY   PTSUNNY   47  26  44 E10       29.84F
DETROIT        CLOUDY    49  26  41 E10       29.84F
FLINT          MOSUNNY   56  27  32 E13G20    29.82F
GROSSE ILE     PTSUNNY   52  28  40 E10       29.81F
HILLSDALE      CLOUDY    46  32  58 SE13      29.80S
HOWELL         PTSUNNY   51  24  35 E14       29.80F

CITY           SKY/WX    TMP DP  RH WIND       PRES   REMARKS
JACKSON        CLOUDY    50  34  54 SE15      29.80F
LAMBERTVILLE   CLOUDY    46  28  49 E12G22    29.82F
LANSING        PTSUNNY   53  30  41 E12       29.81F
LAPEER         FAIR      50  23  34 NE12G18   29.84F
MASON          PTSUNNY   51  31  45 E12       29.80S
MONROE         PTSUNNY   46  32  57 E13       29.82S
MT. CLEMENS    PTSUNNY   52  30  42 E14       29.80F
PONTIAC        CLOUDY    52  26  36 E7        29.80F
PORT HOPE        N/A     39  30  70 NE13      29.91F WCI  31
PORT HURON     MOSUNNY   48  28  46 NE14      29.85F
TRI CITIES     SUNNY     51  29  42 NE21G28   29.87F
MIDLAND        FAIR      49  28  42 E20       29.88F
TROY           PTSUNNY   51  25  35 SE6       29.84F
SAGINAW HB     SUNNY     54  23  30 NE15G21   29.84F
$$
MIZ043>046-050>051-056>058-064>065-071>073-077>080-252000-
SOUTHWEST LOWER MICHIGAN

CITY           SKY/WX    TMP DP  RH WIND       PRES   REMARKS
BATTLE CREEK   CLOUDY    48  37  65 E10       29.81R
BENTON HARBOR  CLOUDY    48  38  68 E12       29.79S
BIG RAPIDS     SUNNY     52  23  31 E8G17     29.82F
COLDWATER      CLOUDY    46  37  72 E9        29.79S
FREMONT        FAIR      55  25  31 E14       29.81S
HOLLAND        CLOUDY    53  38  56 E13       29.82R
GRAND RAPIDS   PTSUNNY   53  32  44 E13       29.81R
IONIA          FAIR      54  31  42 E14       29.81S
KALAMAZOO      CLOUDY    47  38  71 E9        29.81S
LUDINGTON      MOSUNNY   56  19  23 E9G18     29.84S
MARSHALL       CLOUDY    47  37  68 SE8       29.80S
MOUNT PLEASANT SUNNY     53  24  33 E12       29.84F
MUSKEGON       PTSUNNY   55  34  45 E8G22     29.82R
SOUTH HAVEN    CLOUDY    49  38  67 E8        29.80R
$$
MIZ016>042-252000-
NORTHERN LOWER MICHIGAN

CITY           SKY/WX    TMP DP  RH WIND       PRES   REMARKS
BEAVER ISLAND  SUNNY     49  18  29 NE13G20   29.94F
BELLAIRE       SUNNY     54  14  21 E8        29.88F
CADILLAC       MOSUNNY   52  15  22 E13G18    29.83F
CHARLEVOIX     SUNNY     45  31  58 N12       29.94F
FRANKFORT      PTSUNNY   50  16  26 N14G23    29.87S
GAYLORD        SUNNY     50  18  28 NE9G21    29.88F
GRAYLING       CLOUDY    51  15  23 E8        29.87F
HARBOR SPRINGS SUNNY     51  20  29 NE13      29.91F
HOUGHTON LAKE  CLOUDY    51  16  24 E14G20    29.86F
MANISTEE       MOSUNNY   52  19  28 N3        29.85F
OSCODA         SUNNY     45  26  47 NE9       29.92F
PELLSTON       SUNNY     49  19  30 NE15G26   29.93F
ROGERS CITY    SUNNY     43  27  54 NE7       29.96F
TRAVERSE CITY  PTSUNNY   49  21  33 N13       29.86F
$$
MIZ007>008-015-252000-
EASTERN UPPER MICHIGAN

CITY           SKY/WX    TMP DP  RH WIND       PRES   REMARKS
KINROSS        SUNNY     50  19  29 CALM      29.93F
MACKINAC ISLAN SUNNY     45  19  35 SE6       29.95F
NEWBERRY       SUNNY     47  25  41 NE8G17    29.94F
S. S. MARIE    SUNNY     49  22  34 W12       29.93F
$$
MIZ004>006-011>014-085-252000-
CENTRAL UPPER MICHIGAN

CITY           SKY/WX    TMP DP  RH WIND       PRES   REMARKS
MANISTIQUE     SUNNY     48  22  36 SE10      29.94F
ESCANABA       SUNNY     48  19  32 E14       29.94F
MENOMINEE      MOSUNNY   43  21  42 E16G24    29.93F
SAWYER-GWINN   SUNNY     43  19  39 NE15G22   29.96F
$$
MIZ001>003-009>011-084-252000-
WESTERN UPPER MICHIGAN

CITY           SKY/WX    TMP DP  RH WIND       PRES   REMARKS
IRON MOUNTAIN  MOSUNNY   52  13  21 E8        29.90F
HOUGHTON       SUNNY     42  22  44 E15G21    30.00F
COPPER HARBOR    N/A     38  30  73 E8        30.03F WCI  32
IRONWOOD       SUNNY     48  28  46 N15G21    29.90F
$$

ABBREVIATIONS USED IN REMARKS
   TC - TEMPERATURE IN CELSIUS
  WCI - WIND CHILL INDEX
   HX - HEAT INDEX
  VSB - VISIBILITY



USA.gov is the U.S. government's official web portal to all federal, state and local government web resources and services.